Regional Weather Roundup
Issued by NWS

Home | Current Version | Previous Version | Graphics & Text | Print | Product List | Glossary On
Versions: 1 2 3 4 5 6 7 8 9 10 11 12 13 14 15 16 17 18 19 20 21 22 23 24 25 26 27 28 29 30 31 32 33 34 35 36 37 38 39 40 41 42 43 44 45 46 47 48 49 50
000
ASUS43 KBIS 250710
RWRND

NORTH DAKOTA REGIONAL WEATHER ROUNDUP
NATIONAL WEATHER SERVICE BISMARCK ND
200 AM CDT MON MAY 25 2015

NOTE: "FAIR" INDICATES FEW OR NO CLOUDS BELOW 12,000 FEET WITH NO
SIGNIFICANT WEATHER AND/OR OBSTRUCTIONS TO VISIBILITY.


NDZ001>003-009>011-017-250800-
NORTHWEST NORTH DAKOTA

CITY           SKY/WX    TMP DP  RH WIND       PRES   REMARKS
WILLISTON      MOCLDY    49  44  83 N5        29.89F
MINOT          CLOUDY    56  48  74 CALM      29.88F
MINOT AFB      CLOUDY    52  52  99 W2        29.87F
$$

NDZ018>021-031>035-040>046-250800-
SOUTHWEST NORTH DAKOTA

CITY           SKY/WX    TMP DP  RH WIND       PRES   REMARKS
BISMARCK       LGT RAIN  56  54  93 NE5       29.88F
DICKINSON      CLOUDY    55  48  77 NE5       29.86F
GARRISON         N/A     59  52  77 S7        29.88F
HETTINGER ARPT CLOUDY    53  50  89 E6        29.86F
$$

NDZ004>008-012>016-024-026-027-054-250800-
NORTHEAST NORTH DAKOTA

CITY           SKY/WX    TMP DP  RH WIND       PRES   REMARKS
GRAND FORKS    MOCLDY    58  52  80 N3        29.83F
GRND FRKS AFB  MOCLDY    54  51  90 NW2       29.84F
DEVILS LAKE    CLOUDY    59  50  72 CALM      29.86F
$$

NDZ022-023-025-028>030-036>039-047>053-250800-
SOUTHEAST NORTH DAKOTA

CITY           SKY/WX    TMP DP  RH WIND       PRES   REMARKS
FARGO          LGT RAIN  60  56  86 NE5       29.83F
JAMESTOWN      LGT RAIN  57  55  93 NW3       29.85F
$$




USA.gov is the U.S. government's official web portal to all federal, state and local government web resources and services.